METEOR 1-22

导读

METEOR 1-22是苏联(CIS,即独立国家联合体,继承苏联航天遗产)于1975年9月18日发射的流星一号系列气象卫星,属于低轨近极地轨道气象观测卫星。它搭载光学摄影、红外辐射计等探测设备,可实现昼夜云层覆盖、冰雪监测及地球辐射测量,为全球气象预报、气候研究提供数据,是苏联流星气象卫星体系的重要组成,推动了全球气象观测网络发展。

基本信息
目录编号:
8293
目录名称:
METEOR 1-22
国际标识:
1975-087A
轨道中心:
EARTH
卫星名称:
METEOR 1-22
卫星全名:
--
卫星状态:
在轨 (已飞行18622 天)
发射日期:
1975-09-18 UTC
国别 :
俄罗斯(独联体) (CIS)
星等 :
--
该卫星已列入 空间交会检测服务 Space Conjunction Data Service (SCDS) ,当前飞行风险评估等级: 无高风险
轨道信息
数据来源 国际轨道数据 AOE轨道数据
星历时间 2026-09-11T20:56:57+0800
15小时前
查看轨道信息
2026-09-10T21:00:00+0800
1天前
查看轨道信息
半长轴 7227.463km 7227.465km
偏心率 0.0075946 0.0075953
轨道倾角 81.252° 81.254°
近地点辐角 81.975° 84.755°
升交点赤经 260.990° 261.966°
平近点角 279.003° 243.239°
近地点 794.436km 794.433km
远地点 904.216km 904.223km
周期 101.915分钟 101.915分钟
每日圈数 14.129409 14.129402
详细信息
使用方式:
暂无
2D轨道图
3D轨道图
轨道高度分析图
轨道倾角分析图
轨道综合分析图
查看轨道综合分析图
交会数据列表
事件ID 空间交会对象 最接近时刻(TCA) 交会距离 交会风险概率(CRP) 交会风险指数(CRI) 操作
CDM_260914-031200-829301-377722
IRAS (13777)
2026-09-14T
03:12:07+0000
2.229 km
极远距离
2.204383E-6 低风险 0.42
与全量物体交会距离演化趋势
与全量物体交会风险概率演化趋势